sat.trackr.live / text

‹ back to catalog

STARLINK-6351

NORAD 57240 · 2023-094Y

PAYLOAD ACTIVE UNKNOWN

§ Identity

Operator
Country
US
Launch date
2023-07-07
Launch site
AFWTR
Launch vehicle
Mass (kg)
RCS (m²)

Purposes: comms

External: N2YO · Heavens-Above · Gunter

§ Orbital elements

Epoch: 2026-09-20T08:06:56.085696Z

Period
94.27 min
Inclination
43.0054°
Eccentricity
0.0001975
Mean motion
15.27575521 rev/d
Perigee alt
481.7 km
Apogee alt
484.4 km
Semi-major
6,861.2 km
B*
1.4506e-5
RAAN
0.2193°
Arg perigee
279.1097°
Mean anomaly
80.9531°
Rev number
17,701

§ Raw data

STARLINK-63511 57240U 23094Y   26263.33814914  .00000137  00000+0  14506-4 0  99982 57240  43.0054   0.2193 0001975 279.1097  80.9531 15.27575521177010

JSON: /api/v1/satellites/57240 · /tle

For live sub-satellite position, see the globe view (requires WebGL).

§ Visibility from observer

Set your observer location to see the next 7 days of passes ≥ 10°. The values pass through the URL so the page stays shareable.

No JS? Fill the form by hand. The geolocation button needs JavaScript.